Temperature
17 18 18 18 19 19 18 17 16 17 17 17 17 17 17 17 17 17 16 16 16 16 16 16 16 16 16 16 16 16 16 16 15 15 15 15 15 15 15 15 15 15 15 15
17 18 18 18 18 18 18 18 17 17 17 17 17 17 17 17 16 16 16 16 16 16 16 16 16 16 16 16 16 15 15 15 15 15 15 15 15 15 15 15 15 15 15 14
14 16 17 17 17 18 18 18 17 17 16 16 16 16 16 16 16 16 16 16 16 16 16 16 16 16 16 15 15 15 15 15 15 15 15 15 15 15 15 14 14 14 14 14
13 15 16 16 17 18 17 17 17 16 16 16 16 17 17 17 16 16 16 16 16 16 16 16 16 15 15 15 15 15 15 15 14 14 14 14 14 14 14 14 14 14 14 14
13 14 15 16 17 17 17 16 16 16 16 16 16 16 16 16 16 16 17 16 16 16 16 16 15 15 15 15 15 14 14 14 14 14 14 14 14 14 14 14 14 14 14 13
13 14 14 15 16 17 16 15 15 15 15 15 15 13 14 16 16 16 16 16 16 16 16 15 15 15 15 15 14 14 14 14 14 14 14 14 14 14 14 13 13 13 13 13
12 13 13 15 16 17 15 14 15 15 15 15 15 15 16 16 16 16 16 16 16 16 15 15 15 15 14 14 14 14 14 13 13 13 13 14 14 13 13 13 13 13 13 13
11 12 13 15 15 14 14 15 15 15 15 15 16 16 16 16 15 16 16 16 15 15 15 15 14 14 14 14 14 14 13 13 13 13 13 13 13 13 13 13 13 13 12 12
12 13 14 15 15 15 15 15 15 15 15 15 15 15 15 15 15 15 15 15 15 15 15 14 14 14 14 14 14 13 13 13 13 13 13 13 13 13 13 12 12 12 12 12
11 12 13 14 14 14 14 14 14 15 15 15 15 15 15 15 15 14 14 14 14 14 14 14 14 13 13 13 13 13 13 13 13 12 12 12 12 12 12 12 12 12 12 12
10 11 12 13 14 14 14 14 14 14 14 14 14 14 14 14 14 14 14 14 14 14 14 14 13 13 13 13 13 12 12 12 12 12 12 12 12 12 12 12 12 12 12 12
10 11 11 12 13 13 13 13 13 13 13 14 14 14 14 14 14 14 14 14 13 13 13 13 13 13 13 13 12 12 12 12 12 12 12 12 12 11 11 11 11 11 11 11
12 13 12 13 13 13 13 13 13 13 13 13 14 14 14 14 13 13 13 13 13 13 13 13 13 13 13 12 12 12 12 12 12 12 12 11 11 11 11 11 11 11 10 10
12 12 12 12 12 12 12 12 13 13 13 13 13 13 13 13 13 13 13 13 13 12 12 12 12 12 12 12 12 12 12 12 11 11 11 11 11 11 11 10 10 10 10 10
12 12 11 12 12 12 12 12 12 12 12 13 13 13 13 13 13 13 13 12 12 12 12 12 12 12 12 12 12 11 11 11 11 11 11 11 10 10 10 10 10 10 10 10
11 11 11 11 11 11 11 11 11 11 12 12 12 12 12 12 12 12 12 12 12 12 12 11 11 12 11 11 11 11 11 11 11 11 10 10 10 10 10 9 9 9 9 9
10 10 10 10 10 11 11 11 11 11 11 11 11 11 11 11 11 11 11 11 11 11 11 11 11 11 11 11 11 11 11 10 10 10 10 9 9 9 9 9 9 9 8 8
10 10 10 10 10 10 10 10 10 10 10 10 11 11 11 11 11 11 11 11 11 11 11 11 11 11 11 10 10 10 10 10 10 9 9 9 9 9 8 8 8 8 8 8
10 10 10 10 10 10 10 10 10 10 10 10 10 10 10 10 10 10 10 10 10 10 10 10 10 10 10 10 10 10 10 9 9 9 9 9 8 8 8 8 8 7 7 7
10 10 10 9 9 9 9 9 9 9 9 9 9 9 9 9 9 9 10 10 9 9 9 9 9 9 9 9 9 9 9 9 9 8 8 8 8 8 7 7 7 7 7 7
9 9 9 9 9 9 9 8 8 8 8 8 8 8 8 9 9 9 9 9 9 9 9 9 9 9 9 9 9 9 8 8 8 8 8 8 7 7 7 7 7 6 6 6
9 9 8 8 8 8 8 8 8 8 8 8 8 8 8 8 8 8 8 8 8 8 8 8 8 8 8 8 8 8 8 8 7 7 7 7 7 7 6 6 6 6 6 6
8 8 8 8 8 8 8 8 8 8 8 7 7 7 7 7 7 7 7 7 7 7 8 8 8 8 8 8 7 7 7 7 7 7 7 7 6 6 6 6 6 5 5 5
8 8 8 8 7 7 7 7 7 7 7 7 7 7 7 7 7 7 7 7 7 7 7 7 7 7 7 7 7 7 7 6 6 6 6 6 6 5 5 5 5 5 5 5
7 7 7 7 7 7 7 7 7 7 7 6 6 6 6 6 6 6 6 6 6 6 6 6 6 6 6 6 6 6 6 6 6 6 6 5 5 5 5 4 4 4 4 4
7 7 7 7 7 6 6 6 6 6 6 6 6 6 6 5 5 6 6 6 6 6 6 6 6 6 6 6 6 5 5 5 5 5 5 5 5 5 4 4 4 4 4 4
7 7 6 6 6 6 6 6 6 6 5 5 5 5 5 5 5 5 5 5 5 5 5 5 5 5 5 5 5 5 5 5 5 5 5 4 4 4 4 4 4 3 3 3
Wind_Speed
7 7 5 5 6 5 5 7 7 7 7 7 6 7 7 7 6 6 5 5 5 5 4 4 3 3 3 3 3 4 4 4 4 4 4 4 4 3 3 3 4 4 4 4
4 4 3 5 7 7 7 6 6 5 5 6 4 4 5 6 7 6 5 5 5 5 5 5 4 4 3 3 3 4 4 4 3 3 3 3 4 4 4 4 3 4 4 4
4 5 3 5 7 6 4 3 6 7 6 3 4 5 7 7 7 7 6 6 6 6 6 6 6 5 5 4 3 4 4 3 3 3 3 3 4 4 4 4 4 4 3 3
2 2 4 6 4 2 3 1 2 3 3 4 5 6 5 5 6 6 6 6 6 7 6 5 5 5 5 4 4 4 4 3 3 4 3 3 3 4 4 3 4 4 3 3
2 2 5 6 4 2 2 2 1 3 3 2 2 4 1 1 4 6 7 7 6 7 7 6 6 6 5 5 4 3 3 4 4 4 4 4 4 4 4 3 3 3 3 3
3 3 5 6 6 4 2 2 3 2 4 3 4 2 4 3 3 3 3 4 5 5 5 6 6 6 6 5 4 4 4 4 4 4 4 4 4 4 3 3 3 3 3 3
4 5 5 6 6 2 2 5 3 0 3 3 3 5 4 3 2 3 3 4 5 5 6 6 6 7 7 5 6 5 4 3 3 4 4 4 4 3 3 3 3 3 3 2
3 4 6 4 1 2 4 2 1 1 2 2 1 1 1 2 2 2 2 3 5 5 5 5 6 7 7 6 6 4 4 3 3 3 4 3 3 3 3 4 4 3 2 1
5 6 3 1 1 1 1 0 1 1 2 1 1 1 1 2 3 3 3 3 5 6 5 5 6 7 7 6 5 5 4 4 3 2 2 3 4 4 3 3 3 3 3 3
2 4 4 3 3 3 2 2 3 2 2 2 2 2 2 2 3 3 2 3 4 5 5 5 5 6 6 5 5 6 5 4 3 3 2 2 3 3 4 4 4 4 4 4
3 5 4 4 3 4 4 4 4 3 3 3 3 3 4 3 4 4 3 3 4 5 6 6 6 5 5 5 6 6 6 5 4 4 4 3 2 3 4 5 6 6 5 5
6 6 4 7 7 5 4 4 4 4 5 4 3 4 4 4 4 4 4 3 3 4 4 5 5 5 5 5 6 7 5 5 4 4 4 3 2 1 2 2 4 5 6 6
6 6 5 7 6 5 4 4 4 4 4 4 4 4 5 4 4 4 4 4 4 4 4 5 5 5 5 6 6 7 6 6 5 5 4 4 3 3 2 2 1 2 3 5
4 3 5 6 6 5 5 5 5 5 4 3 3 2 3 3 3 4 5 5 5 4 4 4 5 5 5 6 6 7 6 6 6 5 5 4 4 4 4 3 2 2 2 3
5 4 6 6 5 5 4 4 4 4 4 3 2 2 3 4 4 4 4 4 3 3 3 4 5 5 5 5 6 6 6 5 5 5 4 4 4 4 4 4 3 2 1 1
4 3 3 3 4 4 4 4 4 4 3 2 2 2 3 3 3 3 3 3 3 4 4 5 6 5 5 5 6 5 5 6 6 4 4 3 4 4 4 4 4 3 3 2
3 4 4 4 5 5 4 3 3 4 3 3 3 3 2 1 1 2 3 3 4 4 5 5 5 4 4 6 6 5 4 5 5 4 4 4 4 4 4 4 4 4 3 3
6 6 5 4 4 4 5 4 3 3 3 3 2 1 2 2 3 4 3 3 2 2 3 4 4 3 4 5 5 4 4 4 4 4 4 4 4 4 4 4 4 4 2 2
4 3 3 3 3 3 3 4 4 3 3 2 2 2 2 2 2 2 1 1 2 3 4 3 3 3 3 4 5 4 4 4 4 4 3 4 4 4 4 4 4 4 3 2
3 2 2 2 2 2 2 3 3 2 2 1 1 1 1 1 1 1 1 1 3 4 4 3 3 3 3 4 4 4 4 5 4 4 3 4 4 4 4 4 4 4 4 3
2 2 1 1 2 3 2 2 2 2 2 1 1 1 2 2 1 1 0 2 3 3 2 2 3 3 3 4 4 3 4 4 4 4 4 4 4 3 3 3 3 3 3 3
2 2 2 2 2 3 3 2 2 2 1 1 1 1 1 1 1 1 1 2 3 3 2 2 2 4 4 4 3 3 4 4 4 3 4 4 3 3 3 3 3 3 3 2
3 2 2 3 3 3 2 1 1 1 1 1 1 2 2 2 1 1 3 3 2 3 2 2 3 4 5 3 3 3 3 4 4 4 4 4 3 4 3 3 3 3 2 2
2 3 3 2 1 1 1 2 1 1 1 1 1 2 1 1 2 2 2 3 2 3 2 3 4 4 4 2 2 3 3 3 3 3 3 3 3 3 3 3 3 3 3 3
3 2 2 1 1 2 3 2 1 1 1 1 1 2 1 1 2 2 2 1 2 2 1 2 3 4 3 2 2 3 3 3 3 3 3 3 3 3 3 3 3 4 4 4
2 2 2 3 2 2 2 1 1 1 1 1 2 2 2 2 2 2 1 1 1 1 1 0 1 2 2 2 2 2 2 2 2 2 3 3 3 4 4 4 4 4 4 4
1 1 1 1 1 1 1 1 1 1 1 1 2 2 2 2 1 1 1 1 1 1 0 0 1 1 1 1 1 1 1 2 2 2 3 3 3 3 4 4 4 4 4 4
Wind_Direction
244 253 248 251 251 232 209 204 205 224 212 223 210 190 175 162 150 143 142 148 158 161 161 160 158 160 162 163 163 160 150 155 168 164 153 141 141 150 148 144 143 139 136 138
284 263 263 274 269 245 229 216 210 210 236 237 202 162 153 161 157 157 163 168 170 165 162 165 165 164 153 159 161 147 153 165 161 149 143 140 145 146 141 138 135 131 137 144
270 291 325 275 254 232 221 218 192 216 233 195 151 169 175 175 173 174 172 174 177 177 180 181 181 171 163 165 155 149 154 155 149 149 153 163 153 142 150 155 144 136 142 143
253 356 242 252 276 240 191 257 201 186 187 175 176 184 175 161 169 181 181 180 185 184 183 183 174 164 159 149 140 149 159 159 160 154 156 158 149 156 169 163 158 159 161 161
169 225 270 293 291 263 204 278 316 147 152 147 104 81 31 173 173 187 190 191 188 186 179 174 168 162 147 144 144 140 167 175 178 173 165 157 159 178 177 162 160 166 163 160
165 195 239 264 287 298 112 263 315 138 146 143 107 129 248 242 202 193 192 185 180 169 160 165 171 159 150 155 155 171 187 194 188 178 173 177 182 180 169 161 169 163 160 169
194 216 255 278 298 31 140 250 291 178 152 157 190 214 225 205 196 188 185 188 175 162 167 179 175 162 163 170 187 198 192 185 183 187 186 187 183 174 162 161 153 156 163 178
175 202 247 293 43 147 232 269 241 206 181 178 239 269 180 185 195 186 181 181 170 167 179 181 172 167 173 193 202 186 173 175 187 195 195 187 175 180 173 162 158 164 158 179
198 217 252 312 203 276 106 343 282 249 270 195 189 242 212 202 199 203 192 187 177 170 178 184 180 175 183 203 186 168 168 184 194 194 191 179 179 183 176 175 176 183 183 201
271 279 310 333 6 14 14 338 291 263 252 243 224 234 220 197 205 205 199 198 183 170 177 193 193 187 192 192 174 169 178 188 190 187 188 183 182 183 181 188 192 196 198 205
266 283 322 325 335 337 340 338 323 309 291 250 218 230 219 206 208 205 204 200 179 178 188 199 197 196 195 184 174 181 188 189 191 196 191 188 192 202 201 210 204 200 204 197
247 256 252 277 288 303 318 314 310 309 308 288 233 221 214 208 207 201 202 200 189 190 191 197 195 203 203 192 183 184 193 197 196 194 192 186 186 232 263 221 217 207 204 200
242 261 266 283 289 293 294 295 295 287 270 270 257 222 207 209 207 196 194 188 192 200 200 197 197 207 209 196 187 186 196 201 196 192 192 191 191 193 219 313 331 216 205 202
253 267 287 288 286 289 293 295 297 291 279 250 234 228 208 202 196 191 200 203 197 195 199 201 201 212 212 196 188 192 197 201 193 193 195 196 200 204 199 197 219 276 270 224
258 252 258 276 291 300 305 318 320 309 307 295 242 207 197 194 195 208 215 203 181 184 204 206 210 220 210 193 190 193 196 200 194 192 194 198 202 202 200 200 206 217 246 273
262 270 265 271 286 299 314 319 307 294 296 280 249 226 211 206 209 213 211 191 181 202 217 213 217 220 201 189 190 194 201 199 189 186 190 197 203 203 203 203 206 207 215 217
237 269 276 279 283 288 289 285 279 282 288 284 257 233 208 196 214 235 234 218 207 213 216 216 222 219 203 191 186 191 191 195 188 182 191 198 202 206 206 206 210 215 225 218
222 229 234 242 261 281 291 294 290 290 284 274 272 238 212 206 216 233 242 229 209 231 239 229 220 208 199 193 186 184 183 183 185 193 199 200 203 203 201 202 207 212 224 219
221 227 243 253 257 263 275 283 281 281 290 291 261 241 233 235 229 230 228 202 200 236 259 241 195 181 189 196 182 177 178 180 185 195 200 202 202 199 199 203 209 210 207 207
229 229 230 261 281 283 286 290 286 278 280 283 271 260 274 279 264 233 190 209 226 235 240 212 182 181 191 196 183 180 181 183 188 195 198 198 199 201 202 203 206 209 209 212
225 215 214 250 282 291 278 275 274 268 270 244 214 234 258 277 279 253 191 267 272 257 233 209 197 197 191 182 173 172 177 181 184 191 197 197 197 199 201 201 203 209 213 217
204 195 221 239 255 277 280 275 259 249 261 282 293 291 292 298 305 307 275 251 261 246 221 211 208 202 190 179 173 173 177 180 187 191 192 192 194 199 204 204 205 212 216 219
195 198 216 235 242 259 290 307 282 229 228 250 259 257 253 257 243 240 281 283 272 248 232 214 202 197 194 180 174 177 181 189 195 193 192 194 198 200 203 210 213 213 217 224
204 212 222 231 219 198 289 296 294 266 244 258 266 258 257 294 309 290 275 283 287 271 242 208 200 199 188 164 169 183 193 197 194 191 190 193 199 203 206 209 216 220 220 224
208 208 199 183 201 240 249 265 309 331 331 325 321 313 293 256 258 275 282 276 288 302 273 214 203 199 184 170 178 190 197 197 193 189 189 192 198 206 212 213 217 221 222 224
206 203 206 209 214 231 235 219 252 283 275 300 314 313 316 312 297 292 294 294 303 328 335 263 189 176 170 176 187 193 197 205 213 206 198 204 209 213 217 218 221 225 227 227
197 204 216 274 277 238 222 213 211 246 251 253 286 294 298 305 310 316 319 323 318 307 285 233 184 177 182 188 197 205 202 204 206 207 211 215 216 220 224 225 227 229 233 232
Height
1512 1507 1506 1505 1504 1503 1507 1511 1516 1511 1509 1505 1502 1501 1502 1504 1505 1507 1508 1510 1511 1512 1514 1516 1517 1519 1520 1521 1522 1523 1524 1525 1526 1528 1529 1531 1531 1533 1534 1535 1536 1537 1538 1538
1511 1504 1504 1504 1501 1500 1500 1502 1504 1504 1505 1498 1498 1500 1501 1503 1504 1506 1507 1508 1510 1511 1512 1514 1515 1517 1518 1519 1520 1522 1523 1524 1525 1526 1528 1529 1530 1531 1532 1533 1534 1535 1536 1536
1519 1508 1505 1510 1501 1498 1498 1496 1498 1503 1501 1497 1498 1499 1499 1501 1502 1504 1506 1507 1508 1509 1511 1512 1513 1515 1516 1517 1519 1520 1521 1522 1523 1524 1525 1526 1528 1529 1530 1531 1532 1533 1534 1534
1519 1514 1518 1506 1494 1493 1495 1494 1494 1494 1495 1494 1495 1496 1497 1499 1500 1502 1504 1505 1506 1508 1509 1510 1512 1513 1515 1516 1517 1518 1519 1520 1521 1522 1523 1524 1525 1526 1527 1529 1530 1531 1532 1532
1521 1521 1514 1502 1494 1493 1495 1497 1494 1493 1494 1494 1495 1496 1498 1499 1500 1501 1502 1503 1504 1505 1507 1508 1510 1511 1513 1514 1515 1515 1516 1517 1519 1520 1521 1522 1523 1523 1525 1526 1527 1528 1529 1530
1519 1519 1518 1504 1492 1489 1493 1500 1494 1492 1493 1494 1495 1501 1499 1497 1498 1499 1500 1501 1502 1503 1505 1506 1507 1509 1510 1511 1512 1513 1514 1515 1517 1518 1518 1519 1520 1521 1522 1523 1524 1525 1526 1527
1516 1517 1509 1498 1491 1490 1502 1502 1494 1492 1492 1493 1494 1495 1495 1495 1496 1497 1498 1499 1500 1501 1502 1503 1504 1506 1507 1508 1509 1511 1512 1513 1514 1515 1516 1517 1517 1518 1519 1520 1521 1522 1523 1524
1514 1516 1512 1494 1492 1496 1496 1492 1492 1492 1491 1491 1491 1491 1492 1492 1493 1494 1495 1496 1497 1498 1499 1500 1502 1503 1504 1505 1507 1509 1510 1510 1511 1512 1513 1513 1514 1515 1516 1517 1518 1519 1520 1520
1505 1504 1496 1492 1492 1492 1492 1492 1491 1491 1491 1490 1490 1490 1490 1490 1491 1491 1492 1493 1495 1496 1497 1498 1499 1500 1501 1502 1504 1506 1507 1508 1508 1509 1510 1510 1511 1512 1513 1514 1514 1515 1516 1517
1501 1496 1494 1492 1491 1491 1491 1490 1489 1489 1488 1488 1487 1487 1487 1488 1488 1489 1490 1491 1492 1493 1494 1495 1496 1497 1498 1500 1501 1502 1503 1504 1505 1506 1506 1507 1508 1508 1509 1510 1511 1512 1512 1513
1500 1496 1493 1491 1491 1490 1489 1488 1487 1486 1485 1484 1484 1484 1484 1484 1485 1486 1487 1488 1489 1490 1491 1491 1492 1493 1495 1496 1498 1499 1500 1501 1502 1502 1503 1503 1504 1505 1505 1506 1507 1508 1509 1509
1497 1493 1493 1490 1489 1488 1486 1485 1484 1483 1481 1481 1481 1480 1480 1481 1482 1483 1483 1484 1485 1486 1487 1488 1489 1490 1491 1493 1494 1495 1496 1497 1498 1499 1499 1500 1500 1501 1502 1503 1504 1504 1505 1506
1491 1490 1489 1487 1486 1485 1484 1482 1481 1480 1479 1477 1476 1476 1477 1477 1478 1479 1480 1481 1481 1482 1483 1484 1485 1487 1488 1489 1490 1491 1492 1493 1494 1495 1495 1496 1496 1497 1498 1499 1500 1501 1501 1502
1488 1487 1486 1484 1483 1482 1481 1479 1478 1477 1475 1474 1473 1473 1474 1474 1475 1475 1476 1477 1478 1479 1480 1481 1481 1482 1484 1485 1486 1487 1488 1489 1490 1490 1491 1492 1493 1493 1494 1494 1495 1496 1497 1498
1484 1484 1483 1481 1480 1479 1478 1476 1474 1473 1472 1471 1471 1471 1471 1471 1471 1472 1473 1474 1475 1475 1476 1477 1478 1479 1480 1481 1481 1482 1483 1484 1485 1486 1487 1488 1489 1490 1490 1490 1491 1491 1492 1493
1480 1480 1479 1478 1477 1475 1474 1473 1472 1470 1469 1468 1468 1468 1468 1468 1469 1469 1470 1471 1471 1471 1472 1473 1473 1474 1475 1476 1477 1478 1479 1480 1481 1482 1483 1484 1485 1485 1485 1486 1486 1487 1487 1488
1477 1475 1475 1474 1473 1472 1471 1470 1469 1468 1467 1465 1465 1465 1465 1465 1466 1466 1467 1467 1468 1468 1468 1469 1469 1470 1471 1472 1472 1473 1475 1476 1477 1478 1478 1479 1480 1481 1481 1481 1482 1482 1483 1483
1472 1472 1472 1471 1469 1468 1467 1467 1466 1465 1464 1463 1463 1462 1462 1462 1462 1463 1463 1463 1464 1464 1464 1465 1465 1466 1466 1467 1468 1469 1470 1471 1472 1473 1474 1475 1475 1476 1477 1477 1478 1478 1478 1479
1467 1468 1468 1467 1466 1465 1464 1464 1463 1462 1461 1460 1460 1459 1459 1459 1459 1459 1459 1459 1459 1459 1460 1461 1461 1462 1462 1463 1464 1465 1466 1467 1468 1468 1469 1470 1471 1472 1472 1473 1473 1474 1475 1475
1464 1464 1464 1463 1463 1462 1461 1461 1460 1459 1458 1458 1457 1456 1456 1455 1456 1455 1455 1455 1455 1455 1456 1457 1457 1457 1458 1459 1460 1461 1462 1462 1463 1464 1465 1466 1467 1467 1468 1469 1469 1470 1470 1471
1460 1460 1460 1460 1460 1459 1459 1458 1457 1456 1455 1455 1454 1454 1453 1452 1452 1452 1451 1451 1452 1452 1453 1453 1453 1454 1454 1455 1456 1457 1458 1458 1459 1460 1460 1461 1462 1463 1464 1464 1465 1465 1466 1466
1457 1457 1457 1457 1457 1456 1456 1455 1454 1453 1453 1452 1451 1451 1450 1449 1449 1449 1448 1449 1449 1449 1449 1449 1450 1450 1451 1452 1452 1453 1453 1454 1455 1456 1456 1457 1458 1458 1459 1460 1460 1461 1461 1462
1454 1454 1454 1454 1454 1454 1453 1452 1451 1450 1450 1449 1449 1448 1447 1446 1446 1445 1445 1445 1445 1445 1445 1445 1446 1446 1447 1448 1448 1449 1450 1450 1451 1451 1452 1453 1454 1454 1455 1455 1455 1456 1456 1457
1452 1452 1452 1452 1452 1451 1450 1449 1449 1448 1448 1447 1446 1446 1445 1444 1443 1443 1442 1442 1442 1441 1441 1441 1441 1442 1443 1444 1444 1445 1446 1446 1447 1447 1448 1449 1449 1450 1450 1450 1451 1451 1452 1452
1449 1449 1449 1449 1449 1448 1447 1447 1446 1446 1445 1444 1443 1443 1442 1442 1441 1440 1439 1439 1438 1437 1437 1437 1438 1438 1439 1440 1440 1441 1441 1442 1442 1443 1443 1444 1445 1445 1446 1446 1446 1446 1446 1447
1446 1446 1446 1446 1446 1446 1445 1445 1444 1443 1442 1441 1440 1440 1439 1439 1438 1438 1436 1436 1435 1435 1434 1434 1435 1435 1435 1436 1436 1436 1437 1437 1438 1438 1439 1439 1440 1440 1441 1441 1441 1441 1441 1441
1443 1443 1443 1443 1443 1443 1443 1442 1441 1440 1440 1439 1438 1437 1437 1436 1435 1435 1434 1433 1433 1432 1432 1432 1432 1432 1432 1432 1432 1432 1433 1433 1433 1434 1434 1435 1435 1435 1435 1435 1435 1435 1435 1436